www.pogodaiklimat.ru

Погода и климат >> Архив погоды >> Великобритания >> Авиабаза Brize Norton


ПОГОДА на Авиабазе Brize Norton

  • Прогноз погоды на Авиабазе Brize Norton
  • Монитор погоды на Авиабазе Brize Norton

АРХИВ ПОГОДЫ на Авиабазе Brize Norton

Время (UTC), дата Ветер
(напр.,м/с)
 
Видим.   Явления Облачность Т
(С)
Тd
(С)
f
(%)
Тe
(С)
Тes
(С)
Комфортность P
(гПа)
Po
(гПа)
Тmin
(С)
Tmax
(С)
R
(мм)
R24
(мм)
S
(см)
13 9.06 ЮЗ 2 40 км 9/5 1260 м
[Cu med, cong Ac trans Cs]
+17.0 +6.5 50 +17 +22 1019.6 1009.8
14 9.06 ЮЗ 3 50 км 9/5 1350 м
[Cu med, cong Ac trans Cs]
+17.0 +5.9 48 +17 +21 1019.4 1009.6
15 9.06 ЮЗ 2 45 км 8/4 1200 м
[Cu med, cong Ac cuf Ci sp]
+16.9 +5.2 46 +17 +22 1019.0 1009.2
16 9.06 ЮЗ 2 40 км осадки на расстоянии 8/4 900 м
[Cb cap Ac cuf Ci sp]
+17.2 +5.6 46 +18 +21 1018.6 1008.8
17 9.06 ЮЗ 4 30 км слаб. ливневой дождь 9/6 900 м
[Cb cap Ac cuf Ci sp]
+14.2 +7.2 63 +13 +14 1019.1 1009.2
18 9.06 З 3 40 км в посл. час ливневой дождь 9/3 900 м
[Cb cap Ac cuf Ci sp]
+13.6 +8.2 70 +12 +13 1019.1 1009.2 +18.4 0.0
19 9.06 З 3 40 км 9/3 1200 м
[Cu Sc Ac As]
+13.2 +7.9 70 +12 +12 1019.0 1009.1
20 9.06 ЮЗ 1 40 км осадки на расстоянии 9/1 1200 м
[Sc Ac As]
+12.8 +8.0 73 +13 +13 1019.1 1009.2
21 9.06 З 1 40 км в посл. час ливневой дождь 8/1 1200 м
[Sc Ac trans Ci fib]
+12.1 +8.8 80 +13 +13 1019.3 1009.4
22 9.06 З 1 40 км 6/3 1500 м
[Sc Ac As]
+11.1 +9.3 89 +11 +11 1019.3 1009.4
23 9.06 ЮЗ 1 40 км 6/1 1500 м
[Sc Ac trans Ci fib]
+10.3 +8.9 91 +10 +10 1019.1 1009.1
00 10.06 З 1 35 км {ливн. осадки} 6/0
[Ac trans Ci fib]
+9.7 +8.8 94 +9 +9 1019.1 1009.0 0.0
01 10.06 СЗ 1 30 км 4/0
[Ac trans Ci fib]
+8.3 +7.0 92 +7 +7 1018.7 1008.6
02 10.06 СЗ 1 30 км 5/0
[Ac As Ci fib]
+8.1 +7.0 93 +7 +7 1018.3 1008.2
03 10.06 З 2 30 км 5/0
[Ac As Ci fib]
+7.5 +6.2 91 +6 +6 1017.8 1007.7
04 10.06 З 1 25 км туман на расстоянии 6/0
[Ac As Ci fib]
+6.9 +6.0 94 +6 +6 1017.4 1007.2
05 10.06 СЗ 1 25 км туман на расстоянии 8/0
[Ac As]
+8.3 +7.3 93 +7 +8 1017.1 1007.1
06 10.06 штиль 0 20 км 9/1 1500 м
[Sc Ac As]
+9.0 +7.4 90 +8 +9 1017.1 1007.1 +6.7 0.0
07 10.06 С 2 20 км 9/4 1050 м
[Sc Ac cast Ci fib]
+10.9 +8.2 83 +10 +11 1017.0 1007.0
08 10.06 С 4 25 км 9/6 360 м
[Cu Sc Ac As]
+11.7 +8.5 81 +10 +11 1016.8 1006.9
09 10.06 СВ 3 25 км 10/5 420 м
[Cu Sc Ac As]
+12.8 +9.2 79 +11 +13 1016.7 1006.8
10 10.06 СВ 3 12 км слаб. дождь 10/10 420 м
[Cu Sc]
+12.2 +9.7 85 +11 +11 1016.8 1006.9
11 10.06 СВ 3 10 км слаб. дождь 10/10 400 м
[Cu Sc]
+12.6 +10.3 86 +11 +11 1016.2 1006.3
12 10.06 СВ 4 20 км слаб. дождь 10/10 300 м
[Cu Sc]
+12.1 +10.6 91 +10 +10 1015.7 1005.8 1
13 10.06 С 4 25 км слаб. дождь 10/10 420 м
[Cu Sc]
+12.3 +10.1 86 +10 +10 1015.2 1005.3
14 10.06 СВ 5 15 км слаб. дождь 10/10 450 м
[Cu Sc]
+12.2 +10.3 88 +10 +10 1014.8 1004.9
15 10.06 СВ 5 15 км слаб. дождь 10/10 600 м
[Cu Sc]
+11.4 +9.7 89 +9 +9 1014.8 1004.8
16 10.06 СВ 6 12 км слаб. дождь 10/10 360 м
[Cu Sc]
+10.3 +8.9 91 +7 +7 1015.0 1005.1
17 10.06 СВ 5 10 км слаб. дождь 10/10 300 м
[Sc]
+9.7 +7.8 88 +6 +6 1015.1 1005.1
18 10.06 С 6 15 км слаб. дождь 10/10 300 м
[Sc]
+9.3 +8.0 92 +5 +5 1014.3 1004.3 +12.9 7
19 10.06 С 9 8000 м сильн. дождь 10/10 360 м
[Sc]
+9.0 +7.8 92 +4 +4 1013.5 1003.5
20 10.06 С 8
{13}
8000 м дождь {морось} 10/10 420 м
[Sc]
+9.1 +7.9 92 +5 +5 1013.1 1003.1
21 10.06 С 7 10 км дождь {морось} 10/10 360 м
[Sc]
+9.4 +8.1 92 +5 +5 1013.2 1003.2
22 10.06 С 7 8000 м дождь {морось} 10/10 360 м
[Sc]
+9.7 +8.0 89 +6 +6 1013.0 1003.0
23 10.06 С 7 15 км слаб. дождь 10/10 400 м
[Sc]
+9.6 +8.3 92 +6 +6 1012.5 1002.6
00 11.06 С 8 20 км слаб. дождь {морось} 10/10 360 м
[Sc]
+9.6 +8.4 92 +5 +5 1011.9 1001.9 11
01 11.06 С 8
{13}
25 км дождь {морось} 10/10 360 м
[Sc]
+9.9 +8.6 92 +6 +6 1011.7 1001.8
02 11.06 С 9-14
{15}
30 км дождь {морось} 10/10 360 м
[Sc]
+9.9 +8.2 89 +6 +6 1011.5 1001.6
03 11.06 С 10
{16}
8000 м дождь {морось} 10/10 360 м
[Sc]
+9.0 +7.6 91 +4 +4 1011.3 1001.3
04 11.06 СВ 9
{15}
30 км в посл. час дождь {морось} 10/10 330 м
[Sc]
+9.3 +7.9 91 +5 +5 1011.0 1001.0
05 11.06 СВ 12
{16}
25 км слаб. морось {дождь} 10/10 360 м
[Sc]
+10.0 +8.1 88 +5 +5 1011.4 1001.4
06 11.06 СВ 11
{16}
20 км дождь {морось} 10/10 360 м
[Sc]
+10.2 +8.3 88 +6 +6 1011.7 1001.8 +8.9 12
07 11.06 СВ 10
{15}
30 км слаб. дождь {морось} 10/10 360 м
[Frnb]
+10.8 +8.5 86 +7 +7 1012.0 1002.1
08 11.06 СВ 9
{16}
15 км слаб. дождь 10/10 400 м
[Sc]
+10.8 +8.4 85 +7 +7 1012.3 1002.4
09 11.06 СВ 8
{14}
10 км слаб. дождь {морось} 10/10 360 м
[Sc]
+10.7 +8.9 89 +7 +7 1012.8 1002.8
10 11.06 СВ 10
{13}
30 км слаб. дождь 10/10 330 м
[Frnb]
+11.2 +9.4 89 +7 +7 1012.8 1002.9
11 11.06 СВ 8
{14}
30 км слаб. дождь 10/10 330 м
[Frnb]
+11.0 +9.0 87 +7 +7 1013.3 1003.3
12 11.06 СВ 9-14
{14}
30 км слаб. дождь 10/10 330 м
[Frnb]
+11.7 +9.2 85 +8 +8 1013.5 1003.6 0.2
13 11.06 СВ 9-15
{15}
30 км слаб. дождь 10/10 400 м
[Sc]
+11.1 +8.6 85 +7 +7 1013.9 1004.0
14 11.06 СВ 8 30 км слаб. дождь 10/10 400 м
[Sc]
+11.3 +9.0 86 +8 +8 1014.2 1004.2
15 11.06 СВ 8 30 км слаб. дождь 10/10 360 м
[Sc]
+11.1 +8.5 84 +8 +8 1014.3 1004.4
16 11.06 СВ 7 10 км дождь {морось} 10/10 300 м
[St]
+10.5 +8.7 89 +7 +7 1014.5 1004.5
17 11.06 СВ 7 30 км слаб. дождь 10/10 330 м
[Sc]
+10.3 +8.5 89 +7 +7 1014.2 1004.3
18 11.06 СВ 7
{13}
10 км слаб. дождь {морось} 10/10 240 м
[St]
+9.7 +8.5 92 +6 +6 1014.5 1004.5 +11.9 0.4
19 11.06 С 7 15 км слаб. морось {дождь} 10/10 240 м
[Frnb]
+9.8 +8.2 90 +6 +6 1014.5 1004.5
20 11.06 С 6 8000 м дождь {морось} 10/10 240 м
[Frnb]
+9.3 +7.9 91 +5 +5 1014.7 1004.7
21 11.06 С 5 5000 м дождь {морось} 10/10 210 м
[Frnb]
+8.9 +8.0 94 +5 +5 1014.7 1004.7
22 11.06 С 5 8000 м слаб. морось {дождь} 10/10 210 м
[Frnb]
+9.0 +8.2 95 +5 +5 1014.5 1004.5
23 11.06 С 5 4000 м слаб. морось 10/10 210 м
[Frnb]
+9.1 +8.3 95 +5 +5 1014.0 1004.0
00 12.06 С 5 3700 м дождь {морось} 10/10 150 м
[Frnb]
+9.1 +8.4 95 +6 +6 1013.4 1003.4 0.0
01 12.06 СВ 4 3700 м дождь {морось} 10/10 150 м
[Frnb]
+9.2 +8.5 95 +6 +6 1013.1 1003.1
02 12.06 СВ 4 3700 м дождь {морось} 10/10 180 м
[Frnb]
+9.1 +8.5 96 +6 +6 1012.8 1002.8
03 12.06 С 4 4000 м дождь {морось} 10/10 180 м
[Sc]
+9.0 +8.4 96 +6 +6 1011.8 1001.8
04 12.06 СВ 3 4500 м дождь {морось} 10/10 180 м
[St]
+9.0 +8.3 95 +6 +6 1011.7 1001.7
05 12.06 С 3 6000 м слаб. морось 10/10 300 м
[Sc]
+9.1 +8.4 95 +6 +6 1011.6 1001.6
06 12.06 С 4 15 км в посл. час морось {дождь} 10/10 210 м
[Sc]
+9.4 +8.5 94 +7 +7 1011.3 1001.3 +8.9 0.4
07 12.06 С 4 35 км 10/10 210 м
[St]
+9.9 +8.8 93 +7 +7 1011.1 1001.2
08 12.06 С 3 30 км 10/10 210 м
[St]
+10.5 +9.1 91 +8 +8 1010.7 1000.8
09 12.06 С 3 30 км 10/10 210 м
[St]
+10.8 +9.3 90 +9 +9 1010.8 1000.9
10 12.06 С 3 35 км 10/10 300 м
[St]
+11.5 +9.6 88 +10 +10 1010.6 1000.8
11 12.06 С 4 35 км 10/10 300 м
[Sc]
+12.1 +9.5 84 +10 +10 1010.3 1000.4
12 12.06 С 3 40 км н/о +12.7 +9.5 81 +11 +11 1010.4 1000.6
13 12.06 СВ 3 40 км 10/10 540 м
[Cu Sc]
+12.7 +9.3 80 +11 +11 1010.1 1000.3
14 12.06 СВ 2 50 км н/о +13.5 +9.5 77 +13 +13 1009.5 999.7
15 12.06 СВ 2 50 км н/о +13.5 +9.5 77 +13 +13 1009.5 999.7
16 12.06 Ю 1 18 км слаб. дождь н/о +13.6 +9.5 76 +14 +14 1009.2 999.4
17 12.06 Ю 2 12 км дождь 10/10 480 м
[Cu Sc]
+12.7 +10.7 88 +12 +12 1008.7 998.8
18 12.06 ЮЗ 1 12 км слаб. дождь 10/10 400 м
[Sc]
+12.3 +10.6 89 +12 +12 1008.3 998.4 +14.2 1
19 12.06 ЮЗ 1 12 км слаб. дождь 10/10 360 м
[Sc]
+12.0 +10.8 92 +13 +13 1007.9 998.1
20 12.06 ЮЗ 1 10 км слаб. дождь 10/10 480 м
[Sc]
+11.7 +10.8 94 +11 +11 1008.0 998.2
21 12.06 ЮЗ 2 10 км слаб. дождь 10/10 900 м
[Sc]
+11.4 +10.6 95 +10 +10 1007.9 998.1
22 12.06 ЮЗ 2 4000 м дождь {морось} 10/10 150 м
[Sc]
+11.2 +10.6 96 +10 +10 1007.4 997.5
23 12.06 ЮЗ 2 3000 м дождь {морось} 10/10 60 м
[Frnb]
+11.0 +10.5 97 +10 +10 1006.8 997.0
00 13.06 ЮЗ 3 4000 м дождь {морось} 10/10 120 м
[Frnb]
+10.9 +10.3 96 +9 +9 1006.1 996.3 4
01 13.06 ЮЗ 3 3000 м дождь 10/10 150 м
[Sc]
+10.7 +10.1 96 +9 +9 1005.4 995.5
02 13.06 ЮЗ 3 4000 м дождь 10/10 150 м
[Sc]
+10.5 +9.8 95 +8 +8 1004.7 994.8
03 13.06 ЮЗ 4 4000 м дождь 10/10 150 м
[Frnb]
+10.4 +9.7 95 +8 +8 1004.0 994.2
04 13.06 ЮЗ 4 5000 м дождь 10/10 210 м
[Frnb]
+10.3 +9.6 95 +8 +8 1004.0 994.1
05 13.06 ЮЗ 4 7000 м слаб. дождь 10/10 180 м
[Sc]
+10.4 +9.7 95 +8 +8 1003.7 993.8
06 13.06 ЮЗ 5 20 км слаб. дождь 10/9 210 м
[Sc As op]
+10.7 +9.9 95 +8 +8 1003.3 993.5 +10.3 11
07 13.06 ЮЗ 4 30 км слаб. дождь 9/9 270 м
[Sc]
+11.0 +9.9 93 +9 +9 1003.3 993.5
08 13.06 ЮЗ 4 7000 м дождь 10/10 360 м
[Sc]
+11.5 +10.1 91 +9 +9 1003.3 993.5
09 13.06 ЮЗ 4 7000 м дождь 10/10 330 м
[Sc]
+11.5 +10.2 92 +9 +9 1003.5 993.7
10 13.06 ЮЗ 5 8000 м дождь 10/10 270 м
[Sc]
+11.8 +10.7 93 +9 +9 1003.6 993.8
11 13.06 ЮЗ 5 25 км слаб. дождь 9/9 300 м
[Sc]
+12.1 +10.6 91 +10 +10 1003.7 993.9
12 13.06 ЮЗ 5 30 км слаб. дождь 9/9 270 м
[Sc]
+12.5 +11.2 92 +10 +11 1003.5 993.8 5
13 13.06 ЮЗ 4 20 км слаб. дождь {морось} 9/9 240 м
[Sc]
+12.5 +11.6 94 +11 +12 1003.5 993.8
14 13.06 ЮЗ 5 45 км в посл. час дождь н/о +14.0 +11.9 87 +12 +12 1003.4 993.7
15 13.06 ЮЗ 4 35 км {дождь, морось} 9/9 360 м
[Sc]
+14.4 +11.9 85 +13 +14 1003.4 993.6
16 13.06 ЮЗ 3 7000 м слаб. ливневой дождь 8/8 450 м
[Cu Sc]
+13.5 +11.8 89 +12 +14 1003.7 994.0
17 13.06 ЮЗ 4 7000 м ливневой дождь 10/10 300 м
[Cu Sc]
+13.0 +11.8 92 +11 +11 1003.9 994.1
18 13.06 З 2 7000 м слаб. ливневой дождь 10/10 180 м
[Cu Sc]
+12.6 +11.4 92 +12 +12 1004.6 994.8 +15.0 12
19 13.06 З 2 5000 м слаб. ливневой дождь 10/10 210 м
[Cu med, cong]
+12.0 +10.8 92 +11 +11 1005.5 995.7
20 13.06 ЮЗ 1 25 км слаб. ливневой дождь 10/10 210 м
[Cu med, cong]
+11.7 +10.6 93 +11 +11 1006.2 996.3
21 13.06 ЮЗ 1 6000 м слаб. дождь 10/10 210 м
[Sc]
+11.3 +10.4 94 +11 +11 1007.2 997.3
22 13.06 ЮЗ 2 40 км слаб. дождь 10/10 210 м
[Sc]
+11.5 +10.8 95 +11 +11 1007.4 997.5
23 13.06 ЮЗ 2 40 км в посл. час дождь 10/10 360 м
[Sc]
+11.4 +10.4 94 +10 +10 1007.5 997.7
00 14.06 ЮЗ 2 40 км слаб. дождь 10/10 1500 м
[Sc]
+10.9 +9.9 94 +9 +9 1007.6 997.7 4
01 14.06 ЮЗ 3 30 км в посл. час дождь 10/10 540 м
[Sc]
+10.8 +9.8 94 +9 +9 1007.5 997.6
02 14.06 Ю 2 6000 м слаб. дождь 10/10 600 м
[Sc]
+10.7 +9.8 94 +9 +9 1007.4 997.6
03 14.06 Ю 2 7000 м слаб. дождь 10/10 450 м
[Sc]
+10.6 +9.9 95 +9 +9 1007.3 997.5
04 14.06 ЮВ 2 5000 м слаб. дождь 10/10 180 м
[Frnb]
+10.7 +10.2 97 +10 +10 1007.2 997.4
05 14.06 Ю 3 10 км дождь 10/10 240 м
[St]
+11.4 +10.9 97 +10 +10 1007.2 997.3
06 14.06 Ю 3 20 км слаб. дождь 10/10 210 м
[Sc]
+11.7 +11.1 96 +10 +10 1007.2 997.4 +10.6 7
07 14.06 Ю 4 20 км слаб. дождь 9/9 300 м
[Sc]
+12.4 +11.1 92 +10 +11 1007.5 997.6
08 14.06 ЮЗ 4 15 км дождь {морось} 10/10 210 м
[Frnb]
+12.2 +11.2 94 +10 +10 1008.0 998.1
09 14.06 ЮЗ 4 25 км слаб. дождь 8/8 360 м
[Sc]
+13.2 +11.1 87 +11 +13 1008.4 998.5
10 14.06 ЮЗ 4 30 км в посл. час дождь 9/9 570 м
[Sc]
+14.5 +11.4 82 +13 +14 1008.6 998.9
11 14.06 Ю 5 30 км в посл. час ливневой дождь 8/8 360 м
[Cu Sc]
+15.0 +12.5 85 +14 +16 1008.9 999.1
12 14.06 Ю 7 35 км {ливн. осадки, дождь} 5/4 700 м
[Cu Sc Ci sp]
+17.3 +11.6 69 +16 +19 1008.4 998.7 0.8
13 14.06 Ю 6 35 км 5/5 900 м
[Cu hum]
+17.5 +11.4 67 +17 +20 1008.7 999.0
14 14.06 Ю 6 35 км 5/5 900 м
[Cu Sc]
+18.4 +10.7 61 +18 +21 1009.0 999.3
15 14.06 Ю 6 40 км 6/6 900 м
[Cu Sc]
+16.9 +9.6 62 +16 +18 1009.2 999.5
16 14.06 ЮЗ 6 45 км 6/6 900 м
[Cu Sc]
+17.2 +9.5 61 +16 +18 1009.3 999.6
17 14.06 ЮЗ 6 45 км 5/5 900 м
[Cu Sc]
+16.2 +9.0 62 +15 +16 1009.5 999.8
18 14.06 ЮЗ 6 45 км 5/5 1050 м
[Cu Sc]
+16.5 +8.4 59 +16 +16 1009.7 1000.0 +18.5 0.8
19 14.06 ЮЗ 4 45 км 3/3 1050 м
[Sc]
+15.5 +7.5 59 +15 +15 1010.0 1000.2
20 14.06 ЮЗ 3 45 км 3/1 1050 м
[Sc Ci fib]
+14.0 +7.4 64 +13 +13 1010.5 1000.7
21 14.06 Ю 3 40 км 1/0
[Ci fib]
+12.5 +7.4 71 +11 +11 1011.0 1001.1
22 14.06 Ю 3 40 км 1/1 1500 м
[Sc]
+11.2 +8.2 82 +10 +10 1011.3 1001.4
23 14.06 Ю 2 40 км 1/1 1500 м
[Sc]
+10.6 +8.0 84 +9 +9 1011.5 1001.6
00 15.06 Ю 2 40 км 1/1 1500 м
[Sc]
+10.2 +8.4 89 +9 +9 1011.6 1001.7
01 15.06 Ю 2 17 км н/о +10.3 +9.0 92 +9 +9 1011.5 1001.6
02 15.06 Ю 2 30 км 8/3 1500 м
[Sc Ac trans]
+10.8 +9.3 90 +9 +9 1011.3 1001.4
03 15.06 Ю 2 30 км 6/0
[Ci fib]
+10.0 +8.9 93 +9 +9 1011.0 1001.1
04 15.06 Ю 2 30 км 4/0
[Ac trans Ci fib]
+9.2 +8.1 93 +8 +8 1011.3 1001.3
05 15.06 ЮВ 2 30 км 4/0
[Ac trans Ci fib]
+9.5 +9.0 97 +8 +8 1011.2 1001.2
06 15.06 Ю 2 30 км 6/1 1350 м
[Sc Ac trans Ci fib]
+11.8 +10.4 91 +11 +12 1010.9 1001.0 +8.2
07 15.06 Ю 5 30 км 8/4 360 м
[Cu Sc Ac trans Ci fib]
+13.4 +10.5 83 +12 +13 1010.9 1001.0
08 15.06 Ю 6 30 км слаб. дождь 9/6 540 м
[Cu Sc Ac trans Ci fib]
+14.8 +9.2 69 +13 +14 1011.0 1001.2
09 15.06 Ю 5 30 км в посл. час дождь 9/8 750 м
[Cu Sc Ac As]
+15.1 +9.3 68 +14 +15 1011.1 1001.3
10 15.06 Ю 5 25 км слаб. дождь 10/9 660 м
[Sc Ac As]
+14.6 +9.6 72 +13 +13 1011.1 1001.4
11 15.06 Ю 5 30 км слаб. дождь 10/10 660 м
[Cu Sc]
+14.1 +9.8 75 +12 +12 1011.3 1001.5
12 15.06 Ю 5 20 км слаб. дождь 10/10 360 м
[Sc]
+13.5 +11.1 85 +11 +11 1011.7 1001.9 0.2
13 15.06 Ю 5 20 км в посл. час дождь {морось} 9/9 360 м
[Sc]
+14.3 +11.3 82 +13 +13 1011.5 1001.7
14 15.06 ЮЗ 5 25 км в посл. час ливневой дождь 8/8 400 м
[Cu Sc]
+15.8 +12.7 82 +15 +16 1011.1 1001.3
15 15.06 З 3 30 км осадки на расстоянии {ливн. осадки} 9/9 600 м
[Cb cap]
+15.9 +10.5 70 +15 +16 1011.1 1001.3
16 15.06 З 4 35 км в посл. час ливневой дождь 6/5 600 м
[Cb cap Ci fib]
+16.0 +10.2 68 +15 +18 1011.5 1001.8
17 15.06 З 3 40 км осадки на расстоянии 4/3 660 м
[Cu med, cong Ac trans]
+17.0 +8.5 57 +17 +19 1011.4 1001.7
18 15.06 З 3 45 км {ливн. осадки, дождь} 4/3 750 м
[Cu med, cong Ci sp]
+15.0 +9.3 69 +14 +16 1012.0 1002.3 +17.4 0.2
19 15.06 ЮЗ 2 15 км слаб. ливневой дождь 8/8 420 м
[Cu Sc Ac trans Ci fib]
+12.3 +9.5 83 +11 +11 1012.9 1003.0
20 15.06 ЮЗ 2 35 км в посл. час ливневой дождь 5/1 750 м
[Cu Sc Ac trans]
+12.8 +9.2 79 +12 +12 1012.8 1003.0
21 15.06 ЮЗ 1 40 км {ливн. осадки} 1/0
[Ac trans Ci fib]
+11.4 +9.3 87 +11 +11 1013.3 1003.4
22 15.06 З 1 35 км 6/1 900 м
[Sc Ac trans]
+10.4 +8.7 89 +10 +10 1013.9 1004.0
23 15.06 Ю 1 30 км в посл. час ливневой дождь 3/0
[Ac trans]
+10.1 +8.7 91 +10 +10 1014.2 1004.2
00 16.06 З 1 30 км {ливн. осадки} 3/3 1500 м
[Sc Ac trans]
+9.5 +8.5 93 +10 +10 1014.3 1004.3 0.4
01 16.06 ЮЗ 2 25 км местами туман поземный 1/0
[Ci fib]
+8.9 +7.8 93 +7 +7 1014.5 1004.5
02 16.06 ЮЗ 1 20 км местами туман поземный 3/0
[Ci fib]
+8.2 +7.4 95 +7 +7 1014.7 1004.6
03 16.06 ЮВ 1 6000 м местами туман поземный 8/1 300 м
[St Ac trans Ci fib]
+6.9 +6.2 95 +7 +7 1014.7 1004.7
04 16.06 СВ 2 4000 м дымка 4/4 180 м
[St Ac trans Ci fib]
+6.9 +6.4 97 +5 +5 1014.5 1004.5
05 16.06 СВ 1 4000 м дымка 9/3 120 м
[St Ac trans]
+9.1 +8.8 98 +8 +8 1014.5 1004.5
06 16.06 В 1 5000 м слаб. ливневой дождь 9/5 240 м
[Cu Sc Ac trans]
+9.9 +9.5 97 +10 +11 1014.6 1004.7 +6.6 0.6
07 16.06 Ю 3 20 км слаб. ливневой дождь 9/5 300 м
[Cu med, cong Ac As]
+12.6 +11.8 95 +11 +12 1014.5 1004.6
08 16.06 Ю 2 18 км в посл. час ливневой дождь 10/10 300 м
[Cu Sc]
+12.8 +11.8 94 +12 +12 1014.7 1004.8
09 16.06 ЮЗ 5 35 км {ливн. осадки} 9/8 360 м
[Cu Sc Ac trans]
+15.2 +12.2 82 +14 +15 1014.4 1004.6
10 16.06 ЮЗ 5 40 км 6/5 660 м
[Cu Sc Ac trans]
+16.9 +11.3 70 +16 +19 1014.5 1004.7
11 16.06 ЮЗ 4 40 км осадки на расстоянии 8/6 840 м
[Cu Sc Ac trans]
+18.1 +11.3 64 +18 +21 1014.5 1004.8
12 16.06 ЮЗ 6 40 км {ливн. осадки} 8/6 840 м
[Cu Sc Ac trans Ci fib]
+19.2 +11.0 59 +20 +22 1014.6 1004.9 0.8
13 16.06 ЮЗ 6-14
{14}
6000 м ливневой дождь 9/9 800 м
[Cu Sc]
+16.5 +11.6 73 +15 +16 1015.2 1005.4
14 16.06 ЮЗ 6 35 км в посл. час ливневой дождь 8/5 700 м
[Cu Sc Ac trans Ci sp]
+18.4 +12.0 66 +18 +21 1015.0 1005.3

 

Местоположение метеостанции Авиабаза Brize Norton (Великобритания): широта 51.75 долгота -1.58 высота над уровнем моря 81 м.

В архиве по умолчанию представлена погода на Авиабазе Brize Norton за последнюю неделю. Архивные данные за месяц целиком и за предыдущие месяцы, начиная с января 2011 года, Вы можете получить, выбрав интересующий диапазон дат из раскрывающегося списка и нажав кнопку "Ввод!".


*Определитесь, кто Вы:
робот инопланетянин человек

Внимание! Время в таблицах - всемирное. Для получения местного времени необходимо прибавить поправку, которая равна 0 ч.

Смотрите также архив погоды в соседних городах и на ближайших метеорологических станциях:

Погода в Литл Ризсингтон (Великобритания) (15 км)
Погода в Бенсоне (Великобритания) (37 км)
Погода в Линхеме (Великобритания) (39 км)
Погода в Першоре (Великобритания) (54 км)
Погода в Хай-Уикоме (Великобритания) (54 км)
Погода в Ларкхилле (Великобритания) (63 км)
Погода в Боскомб Даун (Великобритания) (66 км)
Погода в Мидл Уоллоп (Великобритания) (67 км)
Погода в Черч Лоуфорд (Великобритания) (71 км)
Погода в Одихеме (Великобритания) (72 км)

Пояснения к столбцам:

Ветер - указаны скорость ветра в м/с - средняя за 10 мин, порывы в срок и между сроками (в фигурных скобках) и направление, откуда дует ветер: С - северный, СВ - северо-восточный, В - восточный, ЮВ - юго-восточный, Ю - южный, ЮЗ - юго-западный, З - западный, СЗ - северо-западный.
Видимость - горизонтальная дальность видимости в метрах или километрах. При видимости от 1 до 10 км при отсутствии осадков обычно наблюдается дымка, при ухудшении видимости до 1 км и менее - туман. В сухую погоду видимость может ухудшаться дымом, пылью или мглою.
Явления - указаны атмосферные явления, наблюдавшиеся в срок или в последний час перед сроком; фигурными скобками обозначены явления, наблюдавшиеся между сроками (за 1-3 часа до срока); квадратными скобками обозначены град или гололедные отложения с указанием их диаметра в мм.
Облачность - указаны через наклонную черту общая и нижняя облачность в баллах и высота нижней границы облаков в метрах; квадратными скобками обозначены формы облаков: Ci - перистые, Cs - перисто-слоистые, Cc - перисто-кучевые, Ac - высококучевые, As - высокослоистые, Sc - слоисто-кучевые, Ns - слоисто-дождевые, Cu - кучевые, Cb - кучево-дождевые. Подробнее классификацию облаков см. в Атласе облаков (PDF).
T - Температура воздуха - температура, измеренная на высоте 2 м над землей.
Td - Температура точки росы - температура, при понижении до которой содержащийся в воздухе водяной пар достигнет насыщения.
f - Относительная влажность воздуха - влажноcть воздуха, измеренная на высоте 2 м над землей.
Te - Эффективная температура - температура, которую ощущает одетый по сезону человек в тени. Характеристика душности погоды. При расчете учитывается влияние влажности воздуха и скорости ветра на теплоощущения человека.
Tes - Эффективная температура на солнце - температура, которую ощущает человек, с поправкой на солнечный нагрев. Характеристика знойности погоды. Зависит от высоты солнца над горизонтом, облачности и скорости ветра. Ночью, в пасмурную погоду, а также при ветре 12 м/с и более поправка равна нулю.
P - Атмосферное давление - приведенное к уровню моря атмосферное давление.
Po - Атмосферное давление - измеренное на уровне метеостанции атмосферное давление.
Tmin - Минимальная температура - минимум температуры воздуха на высоте 2 м над землей.
Tmax - Максимальная температура - максимум температуры воздуха на высоте 2 м над землей.
R - Количество осадков - Количество выпавших осадков за период времени, мм. При наведении курсора мыши на число - период времени, за который выпало указанное количество осадков.
R24 - Количество осадков - Количество выпавших осадков за 24 часа, мм.
S - Снежный покров - Высота снежного покрова, см. При наведении курсора мыши на число - состояние снежного покрова и степень покрытия местности в баллах.